Leominster, MA

1:20 AM EST on January 20, 2017 (GMT -0500)
Fitchburg Municipal

Weather History for KFIT - October, 2013

Change the Weather History Date:

Saturday, October 5, 2013

  Actual Average (KORH) Record (KORH)
Temperature  
Mean Temperature 64 °F -  
Max Temperature 69 °F 62 °F 85 °F (1941)
Min Temperature 59 °F 43 °F 28 °F (1965)
Degree Days  
Heating Degree Days 1    
Growing Degree Days 14 (Base 50)    
Moisture  
Dew Point 56 °F    
Average Humidity 78    
Maximum Humidity 93    
Minimum Humidity 63    
Precipitation  
Precipitation 0.02 in - - ()
Sea Level Pressure  
Sea Level Pressure 30.11 in    
Wind  
Wind Speed 1 mph (NE)    
Max Wind Speed 6 mph    
Max Gust Speed -    
Visibility 10 miles    
Events Rain    
Averages and records for this station are not official NWS values.
T = Trace of Precipitation, MM = Missing Value Source: NWS Daily Summary

Daily Weather History Graph

Daily Weather History Graph

Search for Another Location

Airport or City:

Trip Planner

Search our weather history database for the weather conditions in past years. The results will help you decide how hot, cold, wet, or windy it might be!

Date:

Astronomy

Oct. 05, 2013 Rise Set
Actual Time 6:48 AM EDT 6:21 PM EDT
Civil Twilight 6:20 AM EDT 6:49 PM EDT
Nautical Twilight 5:48 AM EDT 7:21 PM EDT
Astronomical Twilight 5:15 AM EDT 7:54 PM EDT
Moon 7:26 AM EDT (10/5) 6:36 PM EDT (10/5)
Length of Visible Light 12h 28m
Length of Day
11h 32m
New Moon, 0% of the Moon is Illuminated
Oct 5
New Moon
Oct 11
First Quarter
Oct 18
Full
Oct 26
Last Quarter
Nov 3
New

Hourly Weather History & Observations

Time (EDT) Temp. Dew Point Humidity Pressure Visibility Wind Dir Wind Speed Gust Speed Precip Events Conditions
12:52 AM 59.0 °F 57.0 °F 93% 30.08 in 10.0 mi Calm Calm - N/A   Overcast
1:52 AM 59.0 °F 57.0 °F 93% 30.09 in 10.0 mi Calm Calm - N/A   Overcast
2:52 AM 60.1 °F 57.0 °F 90% 30.08 in 10.0 mi Calm Calm - N/A   Overcast
3:52 AM 60.1 °F 57.0 °F 90% 30.08 in 10.0 mi Calm Calm - N/A   Overcast
4:52 AM 59.0 °F 55.9 °F 90% 30.08 in 10.0 mi Calm Calm - N/A   Overcast
5:52 AM 59.0 °F 55.9 °F 90% 30.10 in 10.0 mi Calm Calm - N/A   Overcast
6:52 AM 59.0 °F 55.0 °F 87% 30.10 in 10.0 mi Calm Calm - N/A   Overcast
7:52 AM 60.1 °F 55.9 °F 86% 30.12 in 10.0 mi North 3.5 mph - N/A   Overcast
8:44 AM 60.8 °F 55.4 °F 82% 30.13 in 10.0 mi North 5.8 mph - N/A   Overcast
8:52 AM 60.1 °F 55.9 °F 86% 30.14 in 10.0 mi NNE 5.8 mph - N/A   Overcast
9:52 AM 61.0 °F 55.0 °F 81% 30.13 in 10.0 mi NE 3.5 mph - N/A   Overcast
10:52 AM 63.0 °F 55.0 °F 75% 30.13 in 10.0 mi Calm Calm - N/A   Overcast
11:13 AM 64.4 °F 55.4 °F 73% 30.11 in 10.0 mi Calm Calm - N/A   Scattered Clouds
11:52 AM 66.0 °F 55.0 °F 68% 30.11 in 10.0 mi Calm Calm - N/A   Mostly Cloudy
12:52 PM 68.0 °F 55.0 °F 63% 30.10 in 10.0 mi Calm Calm - N/A   Overcast
1:52 PM 66.9 °F 55.0 °F 66% 30.09 in 10.0 mi NE 4.6 mph - N/A   Overcast
2:52 PM 69.1 °F 55.9 °F 63% 30.08 in 10.0 mi SE 4.6 mph - N/A   Overcast
3:42 PM 68.0 °F 55.4 °F 64% 30.08 in 10.0 mi NNE 3.5 mph - N/A   Overcast
3:52 PM 68.0 °F 55.9 °F 65% 30.09 in 10.0 mi Variable 3.5 mph - N/A   Overcast
4:37 PM 66.2 °F 55.4 °F 68% 30.08 in 10.0 mi ENE 3.5 mph - N/A   Overcast
4:52 PM 68.0 °F 55.9 °F 65% 30.09 in 10.0 mi ENE 4.6 mph - N/A   Overcast
5:04 PM 66.2 °F 55.4 °F 68% 30.09 in 10.0 mi East 3.5 mph - N/A   Overcast
5:14 PM 66.2 °F 55.4 °F 68% 30.10 in 10.0 mi ENE 4.6 mph - N/A   Overcast
5:50 PM 66.2 °F 55.4 °F 68% 30.10 in 10.0 mi Calm Calm - N/A   Overcast
5:52 PM 66.9 °F 55.9 °F 68% 30.10 in 10.0 mi Calm Calm - N/A   Overcast
6:52 PM 64.9 °F 57.0 °F 75% 30.11 in 10.0 mi Calm Calm - N/A   Overcast
7:52 PM 64.0 °F 55.9 °F 75% 30.11 in 10.0 mi NE 3.5 mph - N/A   Overcast
8:52 PM 63.0 °F 57.0 °F 81% 30.12 in 10.0 mi Calm Calm - 0.00 in Rain Light Rain
9:52 PM 62.1 °F 57.9 °F 86% 30.14 in 10.0 mi Calm Calm - 0.00 in   Overcast
10:52 PM 61.0 °F 57.9 °F 90% 30.14 in 4.0 mi NW 3.5 mph - 0.01 in Rain Rain
11:13 PM 60.8 °F 57.2 °F 88% 30.13 in 10.0 mi Calm Calm - 0.01 in   Overcast
11:32 PM 60.8 °F 57.2 °F 88% 30.14 in 10.0 mi Calm Calm - 0.01 in   Overcast
11:52 PM 61.0 °F 59.0 °F 93% 30.14 in 7.0 mi Calm Calm - 0.01 in Rain Light Rain